Location: Unspecified
(51.0950°N, 12.9690°E)
Time: 23:17:47
(UTC+00:00)

SEEDS - Visible Passes

Search period start: 18 April 2024 00:00
Search period end: 28 April 2024 00:00
Orbit: 555 x 565 km, 97.7° (Epoch: 18 April)

Date Brightness Start Highest point End Pass type
(mag) Time Alt. Az. Time Alt. Az. Time Alt. Az.
18 Apr ? 02:39:43 10° NNE 02:43:26 36° E 02:47:06 10° SSE visible
19 Apr ? 02:38:29 10° NNE 02:42:10 35° E 02:45:50 10° SSE visible
20 Apr ? 02:37:13 10° NNE 02:40:53 34° E 02:44:31 10° SSE visible
21 Apr ? 02:35:55 10° NNE 02:39:33 33° E 02:43:10 10° SSE visible
22 Apr ? 02:34:35 10° NNE 02:38:12 32° E 02:41:47 10° SSE visible
23 Apr ? 02:33:14 10° NNE 02:36:49 31° E 02:40:22 10° SSE visible
24 Apr ? 02:31:50 10° NNE 02:35:24 30° E 02:38:56 10° SSE visible
25 Apr ? 02:30:26 10° NNE 02:33:58 29° E 02:37:27 10° SSE visible
26 Apr ? 02:29:00 10° NE 02:32:28 28° E 02:35:56 10° SSE visible
27 Apr ? 02:27:31 10° NE 02:30:58 27° E 02:34:23 10° SSE visible
